Bloomington, IN

8:31 AM EDT on September 03, 2015 (GMT -0400)
APRSWXNET | | Change Station
CLOSE
Current Station
Personal Weather Station
Location: Bloomington, IN
Elevation: 771 ft
Nearby Weather Stations

Elev 771 ft 39.13 °N, 86.45 °W | Updated 36 minutes ago

Fog
Fog
69 °F
Feels Like 69 °F
N
0
Wind Variable Wind from NW
Gusts 0.0 mph

Today
High -- | Low -- °F
--% Chance of Precip.
Yesterday
High -- | Low -- °F
Precip. -- in
7:16 AM 8:13 PM
Waning Gibbous, 70% visible
Pressure 30.03 in
Visibility 4.0 miles
Clouds Clear
Dew Point 65 °F
Humidity 87%
Rainfall in
Snow Depth Not available.
UV 0 out of 12
Pollen 10.60 out of 12
Air Quality Not available.
Flu Activity Not available.
METAR KBMG 031153Z 00000KT 4SM BR CLR 18/17 A3005 RMK AO2 SLP169 T01830172 10194 20178 53007
Pressure 30.03 in
Visibility 4.0 miles
Clouds Clear
Dew Point 65 °F
Humidity 87%
Rainfall in
Snow Depth Not available.
UV 0 out of 12
Pollen 10.60 out of 12
Air Quality Not available.
Flu Activity Not available.
METAR KBMG 031153Z 00000KT 4SM BR CLR 18/17 A3005 RMK AO2 SLP169 T01830172 10194 20178 53007

10-Day Weather Forecast

×

Almanac

Astronomy

Sep. 03, 2015 Rise Set
Actual Time
Civil Twilight
Nautical Twilight
Astronomical Twilight
Moon
Length of Visible Light
Length of Day
Tomorrow will be .
, % of the Moon is Illuminated

Today's Extremes

State Highs State Lows

Community

WunderPhotos

Upload Photos

1,851,946 photos uploaded!

WunderBlogs® & News

Nearby

Air Quality

  Air Quality AQ Index Pollutant
Not available.

Snow Depth

Station Depth Elevation

Earthquake Activity

City Distance Mag. Time & Date
Minimum magnitude displayed is 2.5.

Coastal Water Temperatures

Place Temperature

Stations

Nearby Weather Stations

Station Location Temp. Windchill Dew Point Humidity Wind Precip. Elev Updated Type